2020-061BA (46320 NORAD) Tracking and Keplerian Element Data

This shows tracking and keplerian element data for the satellite.

Feedback or suggestion? Click here.




ElementValue
Catalog46320
Name2020-061BA
Epoch Orbit307
Epoch Day267.54054198
Epoch Year2020
RAAN340.3269
Inclination97.518
Eccentricity0.0003619
Argument of Perigee143.0552
Mean Anonmoly217.0928
Mean Motion15.1104922
Decay Rate3.62E-06
L11 46320U 20061BA 20267.54054198 .00000362 00000-0 25433-4 0 9999
L22 46320 97.5180 340.3269 0003619 143.0552 217.0928 15.11049220 3077

Live tracking and technical data element details for 2020-061BA (NORAD 46320). 2020-061BA can be tracked NOW for your location showing map with azimuth and elevation plus other details from your city location.

Track the satellite on the map from your city or location and see movement details for azimuth, elevation, latitude, longitude, range, height, and movement on the map or in text.







IsCatalogInMostPopularTable: catalog: 46320, numindb: -1

Insert: records affected: 1


GetName: 46320 2020-061BA

Hit Count: inserted at: Thu, 24 Sep 2020 17:31:12 GMT